Location: Newark
(9.4667°S, 159.8167°E)
Time: 11:32:02
(UTC+00:00)

Vanguard 1 - Pass Details

Date: 15 November 2019
Orbit: 651 x 3832 km, 34.3° (Epoch: 11 December)

Event Time Altitude Azimuth Distance (km) Brightness Sun altitude
Rises 11:42:57 0° 279° (W) 4,860 13.8 -55.5°
Reaches altitude 10° 11:45:46 10° 273° (W) 4,211 13.4 -55.9°
Maximum altitude 11:57:35 48° 202° (SSW) 3,312 12.6 -57.4°
Drops below altitude 10° 12:17:36 10° 132° (SE) 6,774 14.4 -59.7°
Sets 12:23:51 0° 126° (SE) 7,954 14.8 -60.2°
